Date,TemperatureHighF,TemperatureAvgF,TemperatureLowF,DewpointHighF,DewpointAvgF,DewpointLowF,HumidityHigh,HumidityAvg,HumidityLow,PressureMaxIn,PressureMinIn,WindSpeedMaxMPH,WindSpeedAvgMPH,GustSpeedMaxMPH,PrecipitationSumIn
2013-7-1,87,81,79,76,75,72,87,80,67,29.99,29.90,11,4,11,0.40
2013-7-2,87,82,76,77,75,71,93,80,69,30.09,29.96,8,4,11,1.10
2013-7-3,87,82,78,77,75,72,89,79,67,30.10,30.02,11,4,11,0.10
2013-7-4,88,84,79,76,74,70,82,72,63,30.13,30.05,11,6,16,1.00
2013-7-5,86,81,76,77,74,72,93,82,70,30.13,30.03,12,4,12,3.90
2013-7-6,86,82,80,76,74,71,86,75,64,30.10,30.01,10,6,12,5.10
2013-7-7,88,83,80,76,74,70,81,73,60,30.08,30.01,9,5,13,1.00
2013-7-8,88,83,80,74,72,71,78,71,59,30.13,30.05,8,4,10,0.00
2013-7-9,86,81,76,74,72,68,88,74,58,30.11,30.03,10,2,11,0.10
2013-7-10,84,77,71,75,69,-100,95,80,70,30.06,29.98,11,3,11,0.10
2013-7-11,89,82,76,76,74,71,92,77,58,30.01,29.93,9,2,9,2.20
2013-7-12,88,80,77,77,73,69,93,81,57,29.95,29.89,9,2,9,0.20
2013-7-13,87,76,73,76,72,71,95,89,63,30.01,29.90,6,2,7,0.20
2013-7-14,87,79,72,75,72,70,95,83,59,30.06,29.96,10,3,13,0.50
2013-7-15,87,79,73,75,72,70,95,83,60,30.06,29.99,7,2,12,1.40
2013-7-16,83,79,73,74,71,69,94,78,65,30.12,30.02,10,4,11,3.70
2013-7-17,81,78,73,74,72,71,95,84,76,30.12,30.02,7,3,9,3.90
2013-7-18,83,75,72,76,72,69,95,92,75,30.09,30.03,11,1,11,9.70
2013-7-19,86,79,74,78,74,72,95,86,69,30.11,30.03,9,3,13,6.80
2013-7-20,85,81,77,78,74,-100,91,81,72,30.08,30.01,10,4,10,0.90
2013-7-21,89,81,76,78,75,73,93,83,68,30.13,30.03,8,2,10,0.90
2013-7-22,88,82,78,76,75,73,88,80,62,30.12,30.06,7,2,8,0.10
2013-7-23,90,83,78,76,74,71,90,75,55,30.09,29.96,7,3,8,0.00
2013-7-24,92,85,78,76,73,67,91,70,47,30.00,29.90,9,4,11,0.00
2013-7-25,93,83,77,75,73,71,89,72,49,30.00,29.90,8,3,11,0.00
2013-7-26,91,82,78,77,74,71,88,79,53,30.00,29.92,10,4,10,0.00
2013-7-27,90,80,76,77,75,73,94,86,60,29.98,29.92,11,2,11,3.50
2013-7-28,85,80,74,77,75,72,93,84,71,30.05,29.93,8,2,12,5.20
2013-7-29,88,81,76,77,75,72,94,84,68,30.12,30.00,9,2,14,4.20
2013-7-30,88,84,74,79,76,71,93,78,65,30.14,30.06,9,3,10,0.70
2013-7-31,88,84,80,76,74,71,85,73,63,30.09,29.99,10,4,10,4.10